[Date Prev][Date Next][Thread Prev][Thread Next] - [Date Index][Thread Index][Author Index]
2 Line ISS Keps 1-27
- Subject: [sarex] 2 Line ISS Keps 1-27
- From: "Dave Larsen PhD" <doc@xxxxxxxxxxx>
- Date: Tue, 27 Jan 2009 05:41:05 -0800
ISS
1 25544U 98067A 09027.19841559 .00009198 00000-0 77646-4 0 1500
2 25544 051.6433 308.7347 0007770 315.2448 193.1079 15.70605173583779
----
Sent via sarex@amsat.org. Opinions expressed are those of the author.
Not an AMSAT member? Join now to support the amateur satellite program!
Subscription settings: http://amsat.org/mailman/listinfo/sarex
AMSAT Home